Temp
11 11 11 11 12 12 12 12 12 12 13 13 13 13 13 13 13 14 15 14 14 14 14 14 14 15 15 15 15 16 16 16 16 17 17 17 17 17 17 17 17 17 17
12 13 12 13 13 13 13 13 13 14 14 13 14 13 13 13 13 13 14 13 12 12 13 13 13 14 14 15 14 14 16 16 16 15 16 17 17 17 16 16 17 17 17
12 12 12 12 12 12 13 13 13 14 14 14 14 14 14 13 13 13 13 12 12 12 11 12 11 12 13 13 14 15 15 15 15 16 16 16 17 17 17 17 16 16 17
12 12 12 12 12 12 12 12 12 13 13 13 14 14 14 14 13 13 13 12 12 12 12 11 11 11 12 12 11 12 13 13 13 14 15 16 16 16 17 17 17 16 16
11 12 11 11 11 11 11 11 12 12 12 12 14 14 14 14 13 13 12 12 12 12 11 11 11 11 11 11 10 10 11 12 14 14 15 15 15 16 17 17 17 16 16
11 11 11 10 11 11 10 10 10 11 11 11 12 13 13 13 13 12 12 13 12 11 11 11 11 11 11 10 10 10 10 10 11 13 14 14 14 15 15 16 16 16 17
10 10 10 10 10 10 9 9 10 10 11 10 12 12 14 14 13 12 12 12 11 11 11 10 10 10 11 10 10 9 10 9 10 10 11 14 15 15 15 16 16 16 16
9 9 9 9 8 9 9 8 8 9 10 10 10 12 14 15 13 11 11 12 10 11 10 10 10 9 10 10 10 9 9 9 10 10 11 11 13 14 15 15 16 16 16
7 7 7 7 7 8 8 7 7 8 8 9 8 9 11 12 10 12 11 10 9 9 9 9 10 9 9 9 9 9 8 8 8 9 9 10 11 12 13 14 14 14 14
6 6 6 6 6 6 6 6 6 6 6 8 8 8 7 7 9 9 9 9 9 9 8 8 9 8 9 9 9 9 8 7 7 8 7 8 9 11 12 12 13 13 14
5 5 5 5 5 5 5 5 5 5 6 6 6 6 6 7 7 7 8 8 8 8 8 7 7 8 8 8 8 8 7 6 6 6 7 7 9 10 10 12 12 13 14
6 5 5 5 4 4 4 4 4 4 4 4 4 5 5 6 6 6 7 7 7 7 6 6 7 7 7 7 7 6 5 5 5 5 5 6 8 9 10 11 11 11 11
6 4 4 4 4 3 3 3 4 4 3 3 3 4 4 4 4 4 4 5 6 6 6 6 6 6 6 6 6 5 4 4 4 4 4 5 6 6 7 8 10 10 11
4 3 3 3 3 3 2 2 3 3 3 2 2 2 2 3 3 3 3 3 5 5 5 5 4 4 4 4 3 3 3 3 3 3 3 4 4 5 5 6 7 9 10
4 3 2 2 2 2 2 2 3 2 2 2 1 1 1 2 2 1 1 2 2 3 4 3 3 3 2 2 2 2 2 2 2 2 2 2 4 4 4 5 6 6 7
2 2 2 2 2 2 1 1 2 2 1 1 1 0 0 1 0 0 0 0 0 1 2 2 2 1 1 1 1 1 1 1 1 2 2 2 2 3 3 4 5 5 5
2 2 2 1 1 1 1 1 1 1 0 0 0 -0 -0 -1 -0 -0 -0 -0 -0 -0 0 0 0 0 0 0 0 0 0 0 1 1 2 3 2 2 2 3 4 5 5
1 1 1 1 1 0 0 0 -0 -0 -0 -0 -1 -1 -1 -1 -1 -1 -1 -1 -1 -1 -1 -0 -1 -1 -1 -1 -1 -1 -1 0 0 1 1 1 1 1 2 2 3 4 5
1 1 0 0 -0 -1 -1 -1 -1 -1 -1 -1 -1 -2 -2 -2 -2 -2 -2 -2 -1 -1 -1 -2 -2 -2 -1 -1 -1 -1 -1 -1 -1 -1 -0 1 1 1 1 1 2 3 4
0 0 -0 -1 -1 -1 -1 -1 -1 -1 -1 -1 -2 -2 -2 -3 -3 -3 -3 -3 -3 -3 -3 -3 -3 -3 -2 -2 -2 -1 -1 -1 -1 -0 0 0 1 1 1 0 2 3 3
-0 -0 -1 -1 -1 -1 -1 -4 -3 -2 -2 -2 -2 -2 -2 -3 -4 -5 -5 -4 -4 -5 -5 -4 -3 -3 -2 -2 -1 -2 -2 -2 -2 -2 -1 -1 -0 1 0 1 2 2 2
0 -0 -1 -1 -1 -1 -4 -6 -6 -4 -3 -2 -2 -2 -2 -3 -3 -5 -4 -5 -6 -5 -4 -4 -3 -3 -2 -2 -2 -2 -2 -3 -2 -2 -1 -1 -1 -0 0 -0 1 1 2
-0 -0 -1 -1 -1 -2 -4 -6 -7 -5 -3 -2 -2 -2 -3 -3 -4 -4 -4 -6 -5 -4 -4 -4 -4 -3 -3 -3 -3 -3 -2 -3 -3 -3 -2 -2 -1 -1 -0 -1 0 1 1
-0 -0 -1 -1 -2 -2 -5 -7 -7 -5 -3 -2 -3 -3 -3 -3 -4 -6 -7 -6 -5 -4 -3 -4 -5 -4 -4 -3 -3 -3 -3 -3 -4 -3 -3 -2 -2 -2 -0 -1 -0 1 1
-0 -1 -1 -2 -2 -2 -5 -7 -7 -4 -3 -3 -3 -4 -4 -5 -5 -8 -8 -7 -6 -5 -4 -5 -5 -4 -3 -3 -3 -4 -3 -4 -3 -3 -3 -3 -3 -2 -1 -0 -1 1 0
-1 -1 -2 -2 -3 -3 -4 -7 -7 -5 -4 -5 -5 -4 -5 -6 -8 -8 -8 -8 -7 -6 -6 -6 -4 -3 -3 -3 -3 -4 -4 -4 -3 -3 -3 -3 -2 -1 -1 1 1 1 1
Height
872 871 869 867 868 867 867 866 866 864 862 860 858 856 853 851 849 847 845 841 839 836 834 832 832 829 829 827 819 823 823 829 829 834 837 838 838 839 842 844 845 848 853
875 875 872 873 872 871 870 869 868 865 864 861 860 857 854 851 850 848 846 845 841 837 834 832 832 831 829 824 821 804 813 824 823 825 828 833 833 835 838 842 844 844 846
878 876 875 875 874 873 872 871 869 867 865 862 859 856 855 853 852 850 848 846 843 840 837 835 833 831 829 825 819 818 816 819 822 817 814 824 826 829 833 836 840 841 842
879 878 878 879 878 876 875 873 870 868 865 863 860 858 856 854 852 850 849 846 844 842 839 836 834 832 829 825 822 819 817 819 818 817 814 819 822 822 827 831 834 837 838
882 883 884 882 879 878 876 875 873 871 868 864 860 858 856 854 853 851 850 847 846 843 841 838 835 832 828 825 823 820 818 818 819 811 809 811 812 818 820 825 828 832 834
886 886 885 884 882 881 880 878 876 873 870 867 861 858 855 854 853 852 850 848 847 844 841 838 835 832 829 826 824 821 820 816 814 814 812 813 811 813 813 817 823 825 829
888 888 888 887 885 884 882 880 877 874 870 867 861 857 852 851 852 852 850 848 847 845 843 840 837 834 831 829 828 824 821 817 814 811 811 809 806 806 806 811 816 819 822
891 891 890 889 887 885 884 881 878 874 870 868 865 858 852 847 849 851 850 848 849 846 844 841 839 836 832 829 826 825 821 817 814 812 808 806 805 804 805 806 808 811 814
892 891 890 889 888 886 885 883 880 876 873 870 870 869 859 854 857 847 850 850 850 848 845 841 838 836 833 829 825 823 820 818 813 811 809 806 804 802 802 801 802 802 804
894 892 891 890 888 888 886 884 881 879 876 873 872 871 870 868 862 854 853 852 850 847 845 841 838 835 831 828 825 823 818 815 813 810 808 806 803 802 800 798 795 794 796
895 894 893 892 889 888 886 885 883 881 879 877 875 873 870 866 864 862 852 850 849 847 845 842 838 834 830 827 824 821 815 813 811 808 806 803 800 799 797 794 791 788 789
895 893 893 892 891 890 888 886 884 882 880 878 877 875 872 869 866 863 857 853 849 846 843 840 837 834 830 826 822 819 814 811 809 806 803 801 798 795 792 790 787 785 784
896 895 893 893 892 891 890 887 885 883 881 879 878 876 873 870 868 864 860 853 848 844 841 839 835 832 829 826 821 816 811 808 805 802 800 798 796 792 788 785 783 781 780
896 895 894 894 892 891 889 888 886 884 882 880 878 876 873 870 868 865 861 855 844 839 837 834 833 830 827 823 818 814 809 805 801 797 794 792 790 787 785 783 781 777 776
896 895 894 893 892 890 888 887 886 884 882 879 877 875 873 869 867 864 860 856 850 838 833 832 829 827 824 820 816 811 804 800 797 792 788 785 783 782 779 778 776 773 770
895 894 893 892 891 889 888 887 886 883 882 879 876 874 872 868 865 862 858 855 851 844 833 833 829 826 822 815 810 805 801 795 789 785 781 778 776 774 772 771 770 769 768
895 894 892 890 890 888 887 886 884 882 880 878 875 873 870 867 863 859 856 853 848 844 834 831 827 821 816 810 804 798 792 789 782 778 775 771 768 765 764 763 761 762 761
893 892 891 890 889 887 886 885 883 881 878 876 874 871 868 865 861 858 854 851 847 842 835 822 824 817 811 805 800 794 787 780 775 770 766 762 759 757 756 754 753 752 752
892 890 889 888 887 885 884 883 881 879 877 874 872 869 866 863 859 855 852 848 843 839 833 824 812 814 805 799 792 786 782 775 768 763 758 754 751 749 745 743 743 742 743
890 889 888 886 885 883 883 881 880 877 875 872 869 866 863 861 857 854 850 845 840 836 831 824 813 803 799 790 787 779 771 768 761 756 750 746 742 738 736 733 732 731 734
888 887 885 884 882 881 881 879 877 875 872 868 865 863 860 857 855 851 848 842 838 832 826 819 810 800 789 782 777 771 764 759 754 751 744 740 734 729 726 722 720 722 723
886 884 882 881 880 879 876 876 874 872 868 865 861 858 855 852 849 846 842 838 835 828 820 814 804 795 783 776 768 761 753 748 743 742 737 731 728 721 718 715 711 714 714
883 881 880 879 878 877 873 873 871 868 865 861 858 855 851 847 844 840 836 831 825 821 816 809 799 790 780 770 762 750 742 735 734 733 732 726 724 717 712 708 703 704 706
880 878 877 876 875 874 870 869 867 864 861 857 854 851 847 843 840 836 831 825 818 812 808 803 796 784 775 765 756 745 733 729 728 728 727 722 718 712 706 702 696 697 697
877 875 874 873 871 870 867 866 864 862 858 854 851 847 844 840 836 832 827 819 812 805 800 794 786 777 767 757 750 740 732 728 723 722 721 716 712 707 703 696 692 689 693
873 872 870 869 868 867 865 863 862 859 855 851 848 843 840 837 832 828 823 815 808 800 793 782 775 768 760 751 743 736 731 725 722 718 715 712 708 704 697 689 686 687 690
Wind_Speed
17 16 17 18 17 16 15 15 14 14 14 13 12 12 11 9 9 8 8 12 10 11 11 13 16 21 24 24 28 35 28 32 28 32 32 31 29 28 27 27 26 25 23
15 16 17 17 16 16 15 14 14 14 14 13 13 12 11 9 9 9 8 9 15 17 18 15 13 13 17 23 24 19 14 29 34 42 36 33 30 29 28 28 28 28 27
17 17 17 17 17 16 15 15 15 14 14 14 14 12 9 10 10 10 10 10 11 15 16 18 17 15 12 14 19 19 15 15 24 34 31 33 31 31 30 30 30 31 29
18 18 18 17 16 16 16 16 17 16 16 16 14 13 8 6 10 10 12 12 14 14 15 21 19 19 18 16 18 20 18 18 19 26 31 27 30 30 30 32 33 33 32
18 16 15 16 16 17 18 17 16 16 16 18 15 12 9 8 7 10 12 11 15 16 17 19 21 19 22 21 21 22 23 22 11 13 8 31 35 30 32 34 35 35 34
16 15 15 16 15 15 15 16 14 15 15 18 15 16 8 7 4 14 12 11 15 18 18 20 20 20 22 25 22 23 23 24 23 15 14 19 26 31 31 31 33 35 36
14 14 14 14 14 14 15 16 15 14 15 18 17 20 9 8 3 21 11 14 16 19 19 20 20 21 21 22 20 25 24 25 25 23 20 19 21 27 32 35 40 35 36
13 13 13 13 15 14 15 16 17 17 14 18 18 17 6 9 12 24 15 11 21 19 21 20 21 22 22 22 22 22 24 27 25 23 22 21 18 18 28 33 37 41 41
12 12 13 13 13 14 15 15 17 17 17 16 16 12 6 6 21 7 19 16 22 22 22 23 22 21 23 24 22 22 24 29 26 25 26 23 23 20 20 28 35 38 42
12 12 12 12 12 11 13 14 15 14 14 14 14 12 10 13 6 8 15 22 22 22 22 23 23 26 24 23 23 23 26 32 30 29 29 27 24 22 20 19 20 20 35
11 12 12 12 12 12 13 13 14 14 13 12 13 14 13 13 14 15 13 22 23 22 22 23 24 25 24 25 26 27 31 29 30 31 30 30 27 24 22 19 19 15 26
8 11 11 12 12 12 13 12 12 12 12 12 12 12 13 13 14 16 13 20 21 24 24 24 23 25 25 27 27 29 30 33 34 31 28 29 29 27 23 24 19 20 19
7 9 10 10 10 12 12 12 11 10 11 11 12 12 12 13 14 16 19 21 20 24 23 22 24 26 27 27 28 31 35 37 33 35 30 25 23 20 22 21 23 17 17
5 7 8 8 9 10 11 11 10 9 10 10 11 12 14 13 14 16 18 22 15 22 25 25 26 24 25 30 33 33 32 34 37 40 41 35 31 32 29 26 22 22 21
4 5 6 7 8 9 10 11 9 10 11 12 12 12 14 15 15 17 17 19 19 14 14 26 28 28 29 31 32 36 39 38 38 41 44 42 39 36 35 29 27 27 19
3 4 5 6 7 8 9 9 9 10 12 12 12 15 15 16 17 17 18 19 20 23 14 26 26 28 29 31 33 35 35 39 40 39 38 40 37 38 35 33 29 27 25
3 4 5 6 7 8 9 9 9 10 12 13 14 14 16 17 17 18 18 19 20 22 25 28 29 30 32 33 34 35 38 35 36 40 40 37 34 33 35 34 33 28 29
3 4 5 5 7 8 9 9 11 12 13 15 16 16 17 17 18 18 17 19 21 23 28 33 28 33 34 35 34 35 38 38 36 37 43 44 42 40 36 35 34 31 30
3 4 4 5 6 8 9 9 11 13 14 15 16 18 19 19 19 18 19 22 23 25 27 32 36 33 36 35 36 36 34 37 39 36 39 38 41 42 32 36 36 35 32
4 4 5 5 6 7 8 9 12 14 15 16 17 19 19 18 19 20 21 22 24 27 29 30 33 36 36 39 34 35 34 34 36 35 35 39 42 40 43 41 38 37 36
5 5 5 6 6 7 7 10 13 15 17 18 18 19 18 19 21 19 20 23 25 28 29 30 32 34 37 36 33 36 35 35 35 35 35 36 36 34 32 35 35 35 39
6 6 6 6 7 7 11 10 13 16 17 17 18 20 21 20 18 21 20 22 26 31 33 32 33 33 41 41 41 39 36 30 14 30 29 32 30 29 26 35 26 32 34
6 6 6 7 7 7 12 10 13 16 17 17 18 20 23 22 22 22 23 27 30 29 29 32 32 37 39 42 41 42 39 30 29 29 29 30 30 32 30 32 30 27 28
7 6 6 7 8 8 12 12 14 15 17 17 18 20 22 23 22 22 26 29 30 30 28 29 33 37 38 38 37 38 35 21 26 27 28 24 30 31 29 27 26 23 27
7 7 7 8 9 8 10 12 13 16 17 18 19 21 22 23 22 25 28 29 30 31 29 31 33 34 34 32 29 28 20 19 19 21 21 25 26 27 25 28 31 16 18
7 7 8 8 9 9 9 11 12 14 17 18 21 22 21 21 25 28 28 27 29 29 35 38 35 34 31 31 28 20 21 21 21 20 22 23 23 22 9 16 18 14 18
Wind_Direction
67 64 56 50 45 39 35 29 24 20 20 19 15 9 3 351 347 344 350 2 2 350 337 319 306 291 280 281 300 246 247 256 250 246 235 228 222 220 217 213 209 207 214
63 58 51 46 41 35 30 25 21 17 12 12 11 13 17 29 24 22 14 7 25 35 31 18 353 320 304 300 304 326 258 256 246 255 240 230 225 223 222 222 217 213 211
57 54 46 38 32 26 22 17 17 12 10 8 8 11 25 42 32 26 19 17 14 12 18 23 22 14 352 323 315 313 310 269 270 241 242 235 228 224 224 224 224 221 216
52 47 41 35 30 25 22 18 13 8 7 5 1 1 359 5 17 18 11 11 10 6 2 359 9 6 7 3 3 360 346 353 329 308 236 245 237 228 231 229 225 223 220
50 48 41 33 30 27 24 18 12 7 2 359 353 351 345 345 0 9 6 5 5 1 357 352 358 354 352 355 357 2 360 356 354 329 261 248 257 238 235 233 228 227 224
48 44 35 32 27 26 22 17 9 3 360 355 347 345 330 349 5 4 350 355 355 355 352 350 349 345 347 348 353 352 352 352 350 337 285 283 264 250 240 239 236 233 230
46 40 30 24 21 22 18 14 8 5 3 360 350 345 324 329 269 348 347 344 351 348 346 346 344 341 339 340 341 344 345 344 343 337 332 295 286 269 255 244 241 238 238
49 39 33 23 19 16 13 11 12 4 4 5 354 340 345 331 2 332 344 345 346 341 340 339 339 337 335 333 332 340 341 339 337 334 327 325 301 283 261 256 253 246 240
46 40 33 26 19 15 10 7 6 8 358 359 3 8 340 347 332 25 332 342 333 334 334 333 333 335 333 329 328 329 329 333 333 333 335 323 320 297 281 264 259 255 245
39 33 29 26 23 19 16 9 5 6 2 352 352 354 340 332 324 317 325 319 330 330 331 329 327 324 326 327 326 325 322 326 326 323 326 321 317 309 294 286 261 261 238
38 31 31 28 27 22 14 9 5 3 2 357 352 346 341 330 326 323 319 326 326 329 327 326 324 324 322 318 316 314 317 317 323 321 321 322 312 306 296 291 281 273 233
31 32 28 24 20 14 6 2 0 360 1 359 351 346 344 335 331 326 321 319 320 321 322 321 322 320 319 317 314 314 315 311 315 315 316 321 318 306 294 279 281 271 257
30 25 28 20 10 2 357 357 356 359 358 355 350 343 339 333 329 323 318 316 314 314 315 315 315 315 313 311 309 309 312 310 311 302 302 301 308 318 319 296 270 263 269
42 32 22 10 2 359 356 353 352 353 349 345 341 338 332 328 325 323 319 317 313 315 316 319 318 314 313 310 309 310 305 304 303 304 300 289 286 283 297 302 293 245 250
42 27 17 4 357 355 356 352 344 341 341 336 333 331 330 326 324 320 316 316 314 313 313 317 317 316 311 307 303 302 301 299 297 295 295 297 288 285 287 285 288 288 266
33 17 7 359 355 354 351 344 334 332 332 331 329 328 327 323 321 320 319 316 312 308 305 313 313 310 308 304 305 304 301 300 301 291 291 292 291 286 280 277 274 280 272
7 359 357 357 350 343 342 338 329 328 328 326 325 323 320 320 318 318 316 313 312 311 304 305 307 307 306 303 305 304 303 300 296 290 290 283 289 290 285 274 269 268 268
339 348 351 346 339 336 337 331 330 327 325 323 320 318 317 318 315 315 314 311 307 306 304 303 305 305 304 304 303 299 297 297 294 289 279 286 289 289 285 275 267 260 259
321 334 331 330 330 333 331 326 327 322 319 317 315 315 315 316 314 314 311 309 309 308 306 305 304 302 299 299 300 295 292 292 290 287 282 276 274 276 278 277 264 254 252
303 310 313 319 328 329 322 324 324 319 315 313 311 310 310 308 308 308 306 308 309 311 308 303 300 300 297 297 293 290 291 288 289 290 283 276 277 281 281 278 258 256 248
289 303 310 316 320 320 311 324 323 318 314 312 311 309 307 306 305 300 302 305 308 307 304 299 295 297 296 299 296 294 286 285 284 283 279 282 279 271 274 277 255 256 245
291 302 306 310 312 312 285 319 320 316 313 311 312 312 312 310 308 305 300 304 303 301 300 298 296 293 296 297 296 290 282 271 275 276 277 273 281 281 275 272 252 253 241
288 295 300 304 306 307 289 315 316 317 312 313 313 314 313 312 313 310 309 310 307 304 298 299 295 297 299 301 302 299 293 258 262 271 276 274 273 281 278 278 276 245 250
284 293 298 301 303 304 301 313 319 321 313 314 314 314 312 313 315 318 314 311 309 309 307 307 306 302 300 303 305 304 295 267 269 273 272 272 273 273 278 280 293 244 235
286 292 299 303 303 306 300 316 327 320 316 317 318 315 315 312 315 322 316 312 310 309 313 313 313 311 316 312 309 311 286 266 272 271 269 268 271 276 283 281 285 233 237
284 292 297 299 298 305 305 314 325 322 317 319 317 314 314 313 316 317 315 310 308 312 318 319 324 325 326 328 323 302 279 275 274 274 272 271 275 271 272 270 252 238 226